FW7297 Weather Reports


Display with metric or nautical units.
time (UTC)temp
F
wind
direction
speed
MPH
gust
MPH
rain 1hr
in
rain 24hr
in
rain mn
in
humidity
%
barometer
mb
20260504020704 51 295 0.0 2.0 0.00 0.03 0.01 68 1016.6
20260504020204 51 290 1.0 2.0 0.00 0.03 0.01 67 1016.6
20260504015704 51 282 1.0 2.0 0.00 0.03 0.01 66 1016.1
20260504014704 52 232 0.0 1.0 0.00 0.03 0.01 64 1016.3
20260504013705 52 282 1.0 2.0 0.00 0.03 0.01 63 1016.0
20260504013205 52 279 1.0 2.0 0.00 0.03 0.01 63 1016.0
20260504012705 53 293 1.0 2.0 0.00 0.03 0.01 62 1016.0
20260504012205 53 295 1.0 2.0 0.00 0.03 0.01 60 1015.9
20260504011705 54 291 1.0 1.0 0.00 0.03 0.01 60 1015.8
20260504011205 55 259 0.0 1.0 0.00 0.03 0.01 59 1015.7
20260504010705 55 262 0.0 2.0 0.00 0.03 0.01 55 1015.8
20260504010204 56 241 1.0 2.0 0.00 0.03 0.01 52 1015.8
20260504005705 56 279 0.0 2.0 0.00 0.03 0.01 51 1015.8
20260504005207 57 284 1.0 2.0 0.00 0.03 0.01 50 1015.8
20260504004704 57 281 1.0 1.0 0.00 0.03 0.01 50 1015.7
20260504004205 58 298 1.0 1.0 0.00 0.03 0.01 50 1015.8
20260504003705 59 305 0.0 1.0 0.00 0.03 0.01 49 1015.5
20260504003205 60 291 0.0 2.0 0.00 0.03 0.01 47 1015.5
20260504002704 60 309 0.0 3.0 0.00 0.03 0.01 46 1015.6
20260504002205 62 316 1.0 3.0 0.00 0.03 0.01 44 1015.6
20260504001205 63 253 3.0 7.0 0.00 0.03 0.01 40 1015.7
20260504000705 63 224 3.0 7.0 0.00 0.03 0.01 39 1015.8
20260504000204 64 225 5.0 7.0 0.00 0.03 0.01 38 1015.4
20260503235206 64 217 3.0 7.0 0.00 0.03 0.01 38 1015.8
20260503234704 64 217 3.0 7.0 0.00 0.03 0.01 37 1015.9
20260503234205 65 230 4.0 7.0 0.00 0.03 0.01 36 1015.8
20260503233704 65 216 5.0 9.0 0.00 0.03 0.01 36 1015.8
20260503233204 65 216 4.0 9.0 0.00 0.03 0.01 35 1016.0
20260503232705 65 222 5.0 9.0 0.00 0.04 0.01 34 1016.1
20260503232205 65 228 5.0 12.0 0.00 0.04 0.01 34 1016.0
20260503231704 65 212 5.0 12.0 0.00 0.04 0.01 34 1016.2
20260503230705 65 245 2.0 8.0 0.00 0.04 0.01 35 1016.2
20260503230204 65 226 5.0 9.0 0.00 0.04 0.01 34 1016.2
20260503225704 66 206 3.0 9.0 0.00 0.04 0.01 35 1016.2
20260503225204 66 216 6.0 10.0 0.00 0.04 0.01 33 1016.2
20260503224705 66 229 6.0 10.0 0.00 0.04 0.01 34 1016.2
20260503224205 67 209 5.0 9.0 0.00 0.04 0.01 33 1016.3
20260503223704 66 254 2.0 12.0 0.00 0.04 0.01 33 1016.3
20260503223204 66 221 4.0 12.0 0.00 0.04 0.01 33 1016.6
20260503222706 66 216 7.0 12.0 0.00 0.04 0.01 33 1016.5
20260503222204 66 210 5.0 10.0 0.00 0.04 0.01 32 1016.5
20260503221705 66 226 4.0 13.0 0.00 0.04 0.01 32 1016.5
20260503220704 67 206 5.0 9.0 0.00 0.04 0.01 33 1016.6
20260503220205 68 220 5.0 9.0 0.00 0.04 0.01 31 1016.7
20260503215705 67 280 2.0 6.0 0.00 0.04 0.01 33 1016.7
20260503215205 68 251 3.0 6.0 0.00 0.04 0.01 32 1016.5
20260503214705 66 267 1.0 8.0 0.00 0.04 0.01 32 1017.0
20260503214205 66 286 3.0 9.0 0.00 0.04 0.01 32 1016.8
20260503213705 66 229 3.0 10.0 0.00 0.04 0.01 34 1016.9
20260503213204 66 210 5.0 10.0 0.00 0.04 0.01 33 1017.1
20260503211705 67 324 3.0 7.0 0.00 0.04 0.01 32 1017.2
20260503211205 67 217 2.0 6.0 0.00 0.04 0.01 32 1017.5
20260503210704 66 229 3.0 13.0 0.00 0.04 0.01 34 1017.4
20260503210204 66 218 5.0 13.0 0.00 0.04 0.01 33 1017.6
20260503205705 67 206 7.0 13.0 0.00 0.04 0.01 32 1017.6
20260503205205 68 207 3.0 5.0 0.00 0.04 0.01 34 1017.5
20260503204705 66 251 2.0 6.0 0.00 0.04 0.01 34 1017.7
20260503204204 66 245 3.0 8.0 0.00 0.04 0.01 34 1017.9
20260503203704 65 58 2.0 9.0 0.00 0.04 0.01 32 1017.9
20260503203204 66 226 6.0 10.0 0.00 0.04 0.01 34 1017.9
20260503202704 66 209 6.0 10.0 0.00 0.04 0.01 34 1018.2
20260503201204 65 217 2.0 8.0 0.00 0.04 0.01 32 1018.5
20260503200706 65 235 5.0 10.0 0.00 0.04 0.01 32 1018.7
20260503200205 65 280 3.0 10.0 0.00 0.04 0.01 32 1018.8
20260503195705 65 218 6.0 10.0 0.00 0.04 0.01 32 1019.0
20260503194704 65 220 4.0 9.0 0.00 0.04 0.01 30 1019.0
20260503194205 66 215 6.0 9.0 0.00 0.04 0.01 30 1019.1
20260503193704 65 236 3.0 10.0 0.00 0.04 0.01 31 1019.2
20260503193205 65 213 5.0 10.0 0.00 0.04 0.01 33 1019.2
20260503192705 65 238 5.0 7.0 0.00 0.04 0.01 33 1019.3
20260503192205 63 89 2.0 9.0 0.00 0.04 0.01 33 1019.5
20260503191705 64 249 5.0 13.0 0.00 0.04 0.01 35 1019.6
20260503191204 63 214 5.0 13.0 0.00 0.04 0.01 33 1019.6
20260503190705 64 274 4.0 10.0 0.00 0.04 0.01 35 1019.7
20260503185704 62 182 4.0 9.0 0.00 0.04 0.01 35 1019.8
20260503185204 63 234 5.0 9.0 0.00 0.04 0.01 35 1019.9
20260503184705 64 207 6.0 8.0 0.00 0.04 0.01 35 1019.8
20260503184204 62 154 3.0 7.0 0.00 0.04 0.01 35 1020.0
20260503183705 63 297 3.0 7.0 0.00 0.04 0.01 35 1019.9
20260503183204 63 262 4.0 7.0 0.00 0.04 0.01 36 1020.1
20260503182704 64 268 4.0 12.0 0.00 0.04 0.01 37 1020.2
20260503182204 63 258 5.0 12.0 0.00 0.04 0.01 36 1020.1
20260503181705 63 241 4.0 7.0 0.00 0.04 0.01 37 1020.1
20260503181205 62 230 3.0 8.0 0.00 0.04 0.01 38 1020.3
20260503180704 62 247 5.0 8.0 0.00 0.04 0.01 35 1020.4
20260503180204 61 286 2.0 12.0 0.00 0.04 0.01 36 1020.6
20260503175704 61 218 3.0 12.0 0.00 0.04 0.01 37 1020.5
20260503175204 62 217 6.0 12.0 0.00 0.04 0.01 36 1020.6
20260503174205 61 186 3.0 8.0 0.00 0.04 0.01 37 1020.5
20260503173204 62 194 5.0 10.0 0.00 0.04 0.01 34 1020.8
20260503172705 61 233 2.0 7.0 0.00 0.04 0.01 35 1020.9
20260503172205 62 233 5.0 7.0 0.00 0.04 0.01 37 1020.9
20260503171705 60 274 2.0 6.0 0.00 0.04 0.01 36 1021.1
20260503171204 60 132 3.0 9.0 0.00 0.04 0.01 35 1021.2
20260503170705 60 288 2.0 9.0 0.00 0.04 0.01 37 1021.3
20260503170205 60 325 3.0 10.0 0.00 0.04 0.01 37 1021.5
20260503150204 54 22 2.0 6.0 0.00 0.04 0.01 49 1022.5
20260503140204 51 108 2.0 5.0 0.01 0.04 0.01 75 1022.8
20260503131206 45 174 2.0 3.0 0.00 0.03 0.00 97 1023.1
20260503130704 44 230 2.0 3.0 0.00 0.03 0.00 97 1023.1
20260503120204 38 224 1.0 2.0 0.00 0.04 0.00 96 1023.0
20260503110704 33 261 1.0 2.0 0.00 0.04 0.00 97 1022.5
20260503110204 33 249 1.0 3.0 0.00 0.04 0.00 97 1022.4
20260503100205 33 255 1.0 2.0 0.00 0.04 0.00 97 1022.0
20260503080204 36 242 2.0 3.0 0.00 0.04 0.00 97 1021.6
20260503072704 37 254 1.0 3.0 0.00 0.04 0.00 96 1021.5
20260503072204 37 244 2.0 3.0 0.00 0.04 0.00 96 1021.8
20260503071204 37 263 2.0 3.0 0.00 0.04 0.00 96 1021.4
20260503070704 37 266 2.0 3.0 0.00 0.04 0.00 96 1021.3
20260503070204 37 297 2.0 3.0 0.00 0.04 0.00 96 1021.3
20260503060204 38 243 1.0 3.0 0.00 0.04 0.00 96 1021.5
20260503054704 38 245 1.0 2.0 0.00 0.04 0.02 96 1021.0
20260503053704 39 260 1.0 3.0 0.00 0.04 0.02 96 1021.1
20260503052703 39 273 1.0 2.0 0.00 0.04 0.02 96 1021.2
20260503052204 39 256 1.0 2.0 0.00 0.04 0.02 96 1021.2
20260503051704 40 274 1.0 2.0 0.00 0.04 0.02 96 1021.1
20260503051204 40 272 1.0 2.0 0.00 0.04 0.02 96 1020.9
20260503050204 41 259 2.0 3.0 0.00 0.04 0.02 96 1021.0
20260503045705 41 254 2.0 3.0 0.00 0.03 0.02 96 1021.0
20260503045204 41 259 2.0 3.0 0.00 0.03 0.02 95 1020.8
20260503044703 41 271 2.0 2.0 0.00 0.03 0.02 95 1020.8
20260503044203 41 276 2.0 3.0 0.00 0.03 0.02 95 1020.7
20260503042704 41 250 3.0 3.0 0.00 0.03 0.02 95 1020.6
20260503042203 41 241 2.0 3.0 0.00 0.03 0.02 95 1020.7
20260503041204 41 271 1.0 2.0 0.00 0.03 0.02 95 1020.7
20260503040704 41 271 2.0 2.0 0.00 0.03 0.02 95 1020.7
20260503040205 41 256 2.0 2.0 0.00 0.03 0.02 95 1020.8
20260503035706 41 227 2.0 2.0 0.00 0.03 0.02 95 1020.7
20260503035204 41 253 1.0 2.0 0.00 0.03 0.02 94 1020.7
20260503034703 42 267 1.0 2.0 0.00 0.03 0.02 94 1020.5
20260503034205 42 270 1.0 2.0 0.00 0.03 0.02 94 1020.6
20260503033703 42 276 1.0 2.0 0.00 0.03 0.02 94 1020.5
20260503033204 42 262 1.0 2.0 0.00 0.03 0.02 94 1020.4
20260503032705 42 276 1.0 2.0 0.00 0.03 0.02 94 1020.4
20260503032204 42 276 2.0 2.0 0.00 0.03 0.02 94 1020.4
20260503031703 42 256 2.0 2.0 0.00 0.03 0.02 94 1020.5
20260503031204 43 251 0.0 2.0 0.00 0.03 0.02 93 1020.3
20260503030204 43 269 2.0 2.0 0.00 0.03 0.02 93 1020.5
20260503025704 43 286 2.0 2.0 0.00 0.03 0.02 93 1020.4
20260503025204 43 270 2.0 2.0 0.00 0.03 0.02 91 1020.4
20260503024704 43 251 1.0 2.0 0.00 0.03 0.02 91 1020.3
20260503023705 44 264 1.0 2.0 0.00 0.03 0.02 90 1020.1
20260503023205 44 259 1.0 3.0 0.00 0.03 0.02 91 1020.3
20260503022704 45 259 2.0 3.0 0.00 0.03 0.02 91 1020.3
20260503021205 45 250 2.0 3.0 0.00 0.03 0.02 90 1020.1